• En España
  • Lista de países
  • Para 7 días
  • Temperatura del agua
  • Mapa Satelital
  • El tiempo en el mapa
  • Informadores
  • user-avatar
    Iniciar sesión

    Tiempo cada hora Sao Pedro da Cova

    Hoy, 25 Noviembre, Sábado

    Tiempo Temperatura Precipitaciones Viento Presión Humedad
    00:00 +16°C° 0,3 mm 3 mps 753 mmHg 95%
    01:00 +16°C° 0,3 mm 2 mps 754 mmHg 95%
    02:00 +15°C° 0,3 mm 2 mps 754 mmHg 94%
    03:00 +15°C° 0,1 mm 2 mps 754 mmHg 94%
    04:00 +15°C° 0,1 mm 2 mps 754 mmHg 94%
    05:00 +13°C° 0,1 mm 3 mps 754 mmHg 93%
    06:00 +14°C° 0 mm 3 mps 754 mmHg 91%
    07:00 +14°C° 0 mm 3 mps 755 mmHg 89%
    08:00 +14°C° 0 mm 3 mps 755 mmHg 87%
    09:00 +16°C° 0 mm 3 mps 755 mmHg 81%
    10:00 +17°C° 0 mm 3 mps 756 mmHg 75%
    11:00 +18°C° 0 mm 3 mps 756 mmHg 69%
    12:00 +18°C° 0 mm 3 mps 756 mmHg 68%
    13:00 +19°C° 0 mm 3 mps 755 mmHg 67%
    14:00 +19°C° 0 mm 3 mps 755 mmHg 65%
    15:00 +17°C° 0 mm 3 mps 755 mmHg 68%
    16:00 +16°C° 0 mm 3 mps 756 mmHg 71%
    17:00 +14°C° 0 mm 3 mps 756 mmHg 74%
    18:00 +14°C° 0 mm 3 mps 756 mmHg 74%
    19:00 +13°C° 0 mm 3 mps 757 mmHg 74%
    20:00 +13°C° 0 mm 3 mps 757 mmHg 74%
    21:00 +12°C° 0 mm 3 mps 758 mmHg 73%
    22:00 +12°C° 0 mm 3 mps 758 mmHg 72%
    23:00 +12°C° 0 mm 4 mps 759 mmHg 70%

    Mañana, 26 Noviembre, Domingo

    Tiempo Temperatura Precipitaciones Viento Presión Humedad
    00:00 +11°C° 0 mm 4 mps 759 mmHg 69%
    01:00 +11°C° 0 mm 4 mps 759 mmHg 68%
    02:00 +10°C° 0 mm 4 mps 759 mmHg 67%
    03:00 +10°C° 0 mm 4 mps 759 mmHg 67%
    04:00 +8°C° 0 mm 4 mps 759 mmHg 67%
    05:00 +8°C° 0 mm 4 mps 760 mmHg 66%
    06:00 +8°C° 0 mm 4 mps 760 mmHg 64%
    07:00 +8°C° 0 mm 4 mps 760 mmHg 62%
    08:00 +10°C° 0 mm 4 mps 761 mmHg 59%
    09:00 +11°C° 0 mm 4 mps 761 mmHg 54%
    10:00 +12°C° 0 mm 4 mps 761 mmHg 50%
    11:00 +14°C° 0 mm 3 mps 761 mmHg 45%
    12:00 +14°C° 0 mm 3 mps 761 mmHg 45%
    13:00 +16°C° 0 mm 3 mps 760 mmHg 44%
    14:00 +16°C° 0 mm 3 mps 760 mmHg 44%
    15:00 +14°C° 0 mm 3 mps 760 mmHg 48%
    16:00 +12°C° 0 mm 3 mps 760 mmHg 52%
    17:00 +11°C° 0 mm 3 mps 760 mmHg 56%
    18:00 +10°C° 0 mm 3 mps 761 mmHg 57%
    19:00 +10°C° 0 mm 3 mps 761 mmHg 58%
    20:00 +9°C° 0 mm 3 mps 761 mmHg 59%
    21:00 +9°C° 0 mm 3 mps 761 mmHg 58%
    22:00 +9°C° 0 mm 3 mps 761 mmHg 58%
    23:00 +9°C° 0 mm 3 mps 761 mmHg 58%

    Pasado mañana, 27 Noviembre, Lunes

    Tiempo Temperatura Precipitaciones Viento Presión Humedad
    00:00 +9°C° 0 mm 3 mps 761 mmHg 58%
    01:00 +9°C° 0 mm 3 mps 760 mmHg 58%
    02:00 +9°C° 0 mm 3 mps 760 mmHg 58%
    03:00 +8°C° 0 mm 3 mps 760 mmHg 59%
    04:00 +8°C° 0 mm 3 mps 760 mmHg 60%
    05:00 +8°C° 0 mm 3 mps 760 mmHg 61%
    06:00 +8°C° 0 mm 3 mps 760 mmHg 60%
    07:00 +9°C° 0 mm 3 mps 760 mmHg 59%
    08:00 +9°C° 0 mm 3 mps 760 mmHg 58%
    09:00 +12°C° 0 mm 2 mps 760 mmHg 53%
    10:00 +14°C° 0 mm 2 mps 760 mmHg 49%
    11:00 +16°C° 0 mm 2 mps 759 mmHg 44%
    12:00 +16°C° 0 mm 1 mps 759 mmHg 43%
    13:00 +18°C° 0 mm 1 mps 758 mmHg 43%
    14:00 +18°C° 0 mm 1 mps 758 mmHg 42%
    15:00 +16°C° 0 mm 1 mps 757 mmHg 46%
    16:00 +15°C° 0 mm 1 mps 757 mmHg 51%
    17:00 +13°C° 0 mm 1 mps 757 mmHg 55%
    18:00 +13°C° 0 mm 1 mps 757 mmHg 56%
    19:00 +12°C° 0 mm 1 mps 757 mmHg 58%
    20:00 +12°C° 0 mm 2 mps 757 mmHg 59%
    21:00 +12°C° 0 mm 2 mps 757 mmHg 59%
    22:00 +12°C° 0 mm 2 mps 757 mmHg 58%
    23:00 +12°C° 0 mm 2 mps 756 mmHg 58%

    28 Noviembre, Martes

    Tiempo Temperatura Precipitaciones Viento Presión Humedad
    00:00 +12°C° 0,2 mm 2 mps 756 mmHg 62%
    01:00 +12°C° 0,2 mm 2 mps 755 mmHg 66%
    02:00 +12°C° 0,2 mm 2 mps 755 mmHg 70%
    03:00 +12°C° 0,2 mm 2 mps 754 mmHg 71%
    04:00 +12°C° 0,2 mm 2 mps 754 mmHg 73%
    05:00 +12°C° 0,2 mm 2 mps 754 mmHg 75%
    06:00 +12°C° 0,3 mm 2 mps 753 mmHg 76%
    07:00 +12°C° 0,3 mm 2 mps 753 mmHg 77%
    08:00 +13°C° 0,3 mm 2 mps 753 mmHg 78%
    09:00 +14°C° 0,2 mm 2 mps 753 mmHg 76%
    10:00 +15°C° 0,2 mm 2 mps 752 mmHg 73%
    11:00 +16°C° 0,2 mm 1 mps 752 mmHg 71%
    12:00 +16°C° 0,2 mm 2 mps 751 mmHg 73%
    13:00 +16°C° 0,2 mm 2 mps 750 mmHg 75%
    14:00 +16°C° 0,2 mm 2 mps 749 mmHg 76%
    15:00 +15°C° 0,3 mm 2 mps 749 mmHg 79%
    16:00 +15°C° 0,3 mm 2 mps 748 mmHg 81%
    17:00 +13°C° 0,3 mm 3 mps 748 mmHg 84%
    18:00 +13°C° 0,6 mm 3 mps 748 mmHg 85%
    19:00 +14°C° 0,6 mm 2 mps 747 mmHg 86%
    20:00 +13°C° 0,6 mm 2 mps 747 mmHg 87%
    21:00 +12°C° 0,6 mm 3 mps 747 mmHg 88%
    22:00 +12°C° 0,6 mm 3 mps 746 mmHg 88%
    23:00 +12°C° 0,6 mm 3 mps 746 mmHg 89%

    29 Noviembre, Miércoles

    Tiempo Temperatura Precipitaciones Viento Presión Humedad
    00:00 +12°C° 0,8 mm 3 mps 745 mmHg 88%
    01:00 +12°C° 0,8 mm 3 mps 745 mmHg 88%
    02:00 +11°C° 0,8 mm 3 mps 745 mmHg 88%
    03:00 +11°C° 0,3 mm 4 mps 745 mmHg 87%
    04:00 +11°C° 0,3 mm 4 mps 744 mmHg 87%
    05:00 +10°C° 0,3 mm 4 mps 744 mmHg 86%
    06:00 +9°C° 0 mm 5 mps 745 mmHg 84%
    07:00 +9°C° 0 mm 5 mps 745 mmHg 81%
    08:00 +9°C° 0 mm 5 mps 745 mmHg 79%
    09:00 +10°C° 0 mm 5 mps 745 mmHg 72%
    10:00 +12°C° 0 mm 5 mps 745 mmHg 64%
    11:00 +13°C° 0 mm 5 mps 745 mmHg 57%
    12:00 +13°C° 0 mm 5 mps 745 mmHg 56%
    13:00 +14°C° 0 mm 5 mps 745 mmHg 55%
    14:00 +14°C° 0 mm 5 mps 745 mmHg 54%
    15:00 +13°C° 0 mm 5 mps 746 mmHg 58%
    16:00 +10°C° 0 mm 5 mps 746 mmHg 62%
    17:00 +9°C° 0 mm 5 mps 747 mmHg 67%
    18:00 +8°C° 0 mm 4 mps 747 mmHg 68%
    19:00 +8°C° 0 mm 4 mps 748 mmHg 68%
    20:00 +7°C° 0 mm 4 mps 748 mmHg 69%
    21:00 +7°C° 0 mm 4 mps 749 mmHg 69%
    22:00 +7°C° 0 mm 4 mps 749 mmHg 68%
    23:00 +8°C° 0 mm 3 mps 750 mmHg 67%

    30 Noviembre, Jueves

    Tiempo Temperatura Precipitaciones Viento Presión Humedad
    00:00 +8°C° 0 mm 3 mps 750 mmHg 67%
    01:00 +7°C° 0 mm 3 mps 750 mmHg 66%
    02:00 +7°C° 0 mm 3 mps 750 mmHg 66%
    03:00 +7°C° 0 mm 3 mps 751 mmHg 67%
    04:00 +5°C° 0 mm 3 mps 751 mmHg 68%
    05:00 +5°C° 0 mm 3 mps 751 mmHg 69%
    06:00 +5°C° 0 mm 3 mps 752 mmHg 67%
    07:00 +6°C° 0 mm 2 mps 752 mmHg 65%
    08:00 +7°C° 0 mm 2 mps 753 mmHg 63%
    09:00 +8°C° 0 mm 2 mps 753 mmHg 56%
    10:00 +10°C° 0 mm 2 mps 753 mmHg 49%
    11:00 +13°C° 0 mm 2 mps 753 mmHg 42%
    12:00 +13°C° 0 mm 2 mps 753 mmHg 41%
    13:00 +12°C° 0 mm 3 mps 753 mmHg 40%
    14:00 +12°C° 0 mm 3 mps 753 mmHg 40%
    15:00 +11°C° 0 mm 3 mps 754 mmHg 45%
    16:00 +9°C° 0 mm 3 mps 754 mmHg 50%
    17:00 +8°C° 0 mm 3 mps 754 mmHg 56%
    18:00 +7°C° 0 mm 3 mps 755 mmHg 58%
    19:00 +7°C° 0 mm 3 mps 755 mmHg 60%
    20:00 +5°C° 0 mm 3 mps 756 mmHg 62%
    21:00 +5°C° 0 mm 3 mps 756 mmHg 64%
    22:00 +5°C° 0 mm 3 mps 756 mmHg 65%
    23:00 +5°C° 0 mm 3 mps 756 mmHg 67%
    Mostrar más